When you browse on this site, cookies collect data to enhance your experience and personalize the content and advertising you see.
Visit our Privacy Policy to learn more. By continuing to use the site, you agree to this use of cookies and data.
  • In Österreich
  • Länderverzeichnis
  • Für 7 Tage
  • Wassertemperatur
  • Satellitenkarten
  • Wetterkarte
  • News
  • Widgets
  • user-avatar
    Anmelden

    Stündliche Wetter Annaba

    Heute, 24 April, Mittwoch

    Zeit Temperatur Niederschläge Wind Luftdruck Luftfeuchtigkeit
    00:00 +16°C° 0 mm 3 m/S 754 mmHg 75%
    01:00 +16°C° 0 mm 3 m/S 755 mmHg 78%
    02:00 +16°C° 0 mm 3 m/S 755 mmHg 74%
    03:00 +16°C° 0 mm 3 m/S 755 mmHg 71%
    04:00 +16°C° 0 mm 3 m/S 755 mmHg 68%
    05:00 +15°C° 0 mm 4 m/S 755 mmHg 69%
    06:00 +15°C° 0 mm 4 m/S 756 mmHg 70%
    07:00 +16°C° 0 mm 5 m/S 756 mmHg 69%
    08:00 +17°C° 0 mm 5 m/S 756 mmHg 70%
    09:00 +19°C° 0 mm 5 m/S 757 mmHg 71%
    10:00 +20°C° 0 mm 5 m/S 757 mmHg 73%
    11:00 +20°C° 0 mm 5 m/S 758 mmHg 71%
    12:00 +20°C° 0 mm 4 m/S 758 mmHg 69%
    13:00 +20°C° 0 mm 4 m/S 759 mmHg 68%
    14:00 +20°C° 0 mm 3 m/S 759 mmHg 68%
    15:00 +20°C° 0 mm 3 m/S 758 mmHg 67%
    16:00 +20°C° 0 mm 3 m/S 758 mmHg 67%
    17:00 +19°C° 0 mm 3 m/S 759 mmHg 73%
    18:00 +17°C° 0 mm 2 m/S 759 mmHg 78%
    19:00 +16°C° 0 mm 2 m/S 759 mmHg 83%
    20:00 +15°C° 0 mm 1 m/S 760 mmHg 86%
    21:00 +15°C° 0 mm 1 m/S 760 mmHg 89%
    22:00 +13°C° 0 mm 0 m/S 761 mmHg 92%
    23:00 +13°C° 0 mm 0 m/S 761 mmHg 92%

    Morgen, 25 April, Donnerstag

    Zeit Temperatur Niederschläge Wind Luftdruck Luftfeuchtigkeit
    00:00 +13°C° 0 mm 0 m/S 761 mmHg 92%
    01:00 +12°C° 0 mm 0 m/S 760 mmHg 93%
    02:00 +12°C° 0 mm 0 m/S 760 mmHg 92%
    03:00 +12°C° 0 mm 0 m/S 760 mmHg 92%
    04:00 +12°C° 0 mm 0 m/S 760 mmHg 92%
    05:00 +14°C° 0 mm 1 m/S 760 mmHg 90%
    06:00 +15°C° 0 mm 1 m/S 760 mmHg 89%
    07:00 +16°C° 0 mm 1 m/S 760 mmHg 87%
    08:00 +18°C° 0 mm 1 m/S 760 mmHg 80%
    09:00 +20°C° 0 mm 1 m/S 760 mmHg 73%
    10:00 +22°C° 0 mm 1 m/S 760 mmHg 67%
    11:00 +24°C° 0 mm 2 m/S 760 mmHg 64%
    12:00 +25°C° 0 mm 2 m/S 760 mmHg 61%
    13:00 +26°C° 0 mm 3 m/S 760 mmHg 58%
    14:00 +26°C° 0 mm 3 m/S 759 mmHg 59%
    15:00 +26°C° 0 mm 3 m/S 759 mmHg 60%
    16:00 +26°C° 0 mm 3 m/S 759 mmHg 62%
    17:00 +24°C° 0 mm 3 m/S 759 mmHg 68%
    18:00 +21°C° 0 mm 2 m/S 759 mmHg 73%
    19:00 +19°C° 0 mm 2 m/S 759 mmHg 79%
    20:00 +19°C° 0 mm 2 m/S 760 mmHg 81%
    21:00 +19°C° 0 mm 1 m/S 760 mmHg 83%
    22:00 +18°C° 0 mm 1 m/S 761 mmHg 86%
    23:00 +18°C° 0 mm 1 m/S 761 mmHg 87%

    übermorgen, 26 April, Freitag

    Zeit Temperatur Niederschläge Wind Luftdruck Luftfeuchtigkeit
    00:00 +16°C° 0 mm 2 m/S 761 mmHg 88%
    01:00 +16°C° 0 mm 2 m/S 761 mmHg 89%
    02:00 +15°C° 0 mm 2 m/S 762 mmHg 90%
    03:00 +15°C° 0 mm 2 m/S 762 mmHg 91%
    04:00 +14°C° 0 mm 3 m/S 762 mmHg 92%
    05:00 +15°C° 0 mm 2 m/S 763 mmHg 89%
    06:00 +16°C° 0 mm 2 m/S 763 mmHg 86%
    07:00 +17°C° 0 mm 2 m/S 764 mmHg 84%
    08:00 +18°C° 0 mm 2 m/S 764 mmHg 74%
    09:00 +20°C° 0 mm 2 m/S 764 mmHg 64%
    10:00 +23°C° 0 mm 2 m/S 765 mmHg 55%
    11:00 +22°C° 0 mm 3 m/S 765 mmHg 55%
    12:00 +23°C° 0 mm 4 m/S 765 mmHg 56%
    13:00 +23°C° 0 mm 5 m/S 765 mmHg 56%
    14:00 +22°C° 0 mm 5 m/S 764 mmHg 56%
    15:00 +22°C° 0 mm 5 m/S 764 mmHg 56%
    16:00 +21°C° 0 mm 5 m/S 764 mmHg 56%
    17:00 +20°C° 0 mm 4 m/S 764 mmHg 61%
    18:00 +18°C° 0 mm 3 m/S 765 mmHg 66%
    19:00 +17°C° 0 mm 3 m/S 765 mmHg 71%
    20:00 +16°C° 0 mm 2 m/S 765 mmHg 75%
    21:00 +15°C° 0 mm 2 m/S 766 mmHg 80%
    22:00 +14°C° 0 mm 2 m/S 767 mmHg 84%
    23:00 +14°C° 0 mm 2 m/S 767 mmHg 85%

    27 April, Samstag

    Zeit Temperatur Niederschläge Wind Luftdruck Luftfeuchtigkeit
    00:00 +13°C° 0 mm 2 m/S 767 mmHg 86%
    01:00 +13°C° 0 mm 2 m/S 767 mmHg 86%
    02:00 +13°C° 0 mm 2 m/S 766 mmHg 87%
    03:00 +12°C° 0 mm 2 m/S 766 mmHg 87%
    04:00 +12°C° 0 mm 2 m/S 766 mmHg 87%
    05:00 +12°C° 0 mm 2 m/S 766 mmHg 84%
    06:00 +13°C° 0 mm 2 m/S 766 mmHg 80%
    07:00 +14°C° 0 mm 2 m/S 766 mmHg 77%
    08:00 +16°C° 0 mm 2 m/S 766 mmHg 68%
    09:00 +17°C° 0 mm 2 m/S 767 mmHg 60%
    10:00 +19°C° 0 mm 2 m/S 767 mmHg 52%
    11:00 +20°C° 0 mm 2 m/S 766 mmHg 51%
    12:00 +20°C° 0 mm 3 m/S 766 mmHg 50%
    13:00 +21°C° 0 mm 3 m/S 766 mmHg 49%
    14:00 +21°C° 0 mm 3 m/S 766 mmHg 50%
    15:00 +21°C° 0 mm 4 m/S 765 mmHg 52%
    16:00 +20°C° 0 mm 4 m/S 765 mmHg 54%
    17:00 +19°C° 0 mm 3 m/S 765 mmHg 60%
    18:00 +17°C° 0 mm 2 m/S 765 mmHg 66%
    19:00 +16°C° 0 mm 2 m/S 765 mmHg 71%
    20:00 +15°C° 0 mm 1 m/S 766 mmHg 75%
    21:00 +14°C° 0 mm 1 m/S 766 mmHg 79%
    22:00 +13°C° 0 mm 1 m/S 767 mmHg 83%
    23:00 +12°C° 0 mm 1 m/S 767 mmHg 83%

    28 April, Sonntag

    Zeit Temperatur Niederschläge Wind Luftdruck Luftfeuchtigkeit
    00:00 +12°C° 0 mm 1 m/S 766 mmHg 84%
    01:00 +12°C° 0 mm 2 m/S 766 mmHg 85%
    02:00 +12°C° 0 mm 2 m/S 766 mmHg 84%
    03:00 +10°C° 0 mm 2 m/S 765 mmHg 84%
    04:00 +10°C° 0 mm 2 m/S 765 mmHg 83%
    05:00 +12°C° 0 mm 2 m/S 765 mmHg 79%
    06:00 +12°C° 0 mm 2 m/S 765 mmHg 76%
    07:00 +13°C° 0 mm 2 m/S 765 mmHg 72%
    08:00 +15°C° 0 mm 2 m/S 765 mmHg 66%
    09:00 +18°C° 0 mm 1 m/S 765 mmHg 61%
    10:00 +21°C° 0 mm 1 m/S 765 mmHg 55%
    11:00 +20°C° 0 mm 2 m/S 764 mmHg 53%
    12:00 +21°C° 0 mm 2 m/S 764 mmHg 51%
    13:00 +21°C° 0 mm 3 m/S 764 mmHg 50%
    14:00 +21°C° 0 mm 3 m/S 763 mmHg 52%
    15:00 +21°C° 0 mm 4 m/S 763 mmHg 54%
    16:00 +20°C° 0 mm 4 m/S 762 mmHg 56%
    17:00 +19°C° 0 mm 4 m/S 763 mmHg 62%
    18:00 +17°C° 0 mm 3 m/S 763 mmHg 69%
    19:00 +14°C° 0 mm 3 m/S 763 mmHg 75%
    20:00 +14°C° 0 mm 2 m/S 763 mmHg 78%
    21:00 +13°C° 0 mm 1 m/S 764 mmHg 81%
    22:00 +12°C° 0 mm 1 m/S 764 mmHg 84%
    23:00 +12°C° 0 mm 1 m/S 764 mmHg 85%

    29 April, Montag

    Zeit Temperatur Niederschläge Wind Luftdruck Luftfeuchtigkeit
    00:00 +12°C° 0 mm 2 m/S 764 mmHg 87%
    01:00 +12°C° 0 mm 2 m/S 764 mmHg 88%
    02:00 +10°C° 0 mm 2 m/S 763 mmHg 89%
    03:00 +10°C° 0 mm 2 m/S 763 mmHg 90%
    04:00 +10°C° 0 mm 2 m/S 763 mmHg 90%
    05:00 +10°C° 0 mm 2 m/S 762 mmHg 88%
    06:00 +12°C° 0 mm 2 m/S 762 mmHg 85%
    07:00 +13°C° 0 mm 2 m/S 762 mmHg 82%
    08:00 +15°C° 0 mm 2 m/S 762 mmHg 72%
    09:00 +18°C° 0 mm 1 m/S 762 mmHg 61%
    10:00 +20°C° 0 mm 1 m/S 762 mmHg 51%
    11:00 +20°C° 0 mm 2 m/S 761 mmHg 48%
    12:00 +21°C° 0 mm 2 m/S 761 mmHg 44%
    13:00 +22°C° 0 mm 3 m/S 760 mmHg 41%
    14:00 +21°C° 0 mm 3 m/S 760 mmHg 44%
    15:00 +21°C° 0 mm 3 m/S 759 mmHg 47%
    16:00 +21°C° 0 mm 3 m/S 759 mmHg 49%
    17:00 +19°C° 0 mm 3 m/S 759 mmHg 56%
    18:00 +18°C° 0 mm 3 m/S 759 mmHg 63%
    19:00 +16°C° 0 mm 2 m/S 759 mmHg 70%
    20:00 +15°C° 0 mm 2 m/S 759 mmHg 73%
    21:00 +14°C° 0 mm 1 m/S 759 mmHg 77%
    22:00 +13°C° 0 mm 1 m/S 760 mmHg 81%
    23:00 +13°C° 0 mm 1 m/S 759 mmHg 81%
    Mehr zeigen